Location: Marcé
(47.5801°N, 0.3280°W)
Time: 18:02:39
(UTC+01:00)

Tiros 1 - Pass Details

Date: 01 December 2021
Orbit: 629 x 664 km, 48.4° (Epoch: 26 January)

Event Time Altitude Azimuth Distance (km) Brightness Sun altitude
Rises 20:10:19 0° 216° (SW) 2,915 11.0 -29.3°
Reaches altitude 10° 20:12:49 10° 206° (SSW) 2,015 10.0 -29.7°
Enters shadow 20:13:46 15° 199° (SSW) 1,709 9.5 -29.9°
Maximum altitude 20:16:52 30° 145° (SE) 1,141 - -30.4°
Drops below altitude 10° 20:20:58 10° 84° (E) 2,042 - -31.1°
Sets 20:23:32 0° 74° (ENE) 2,961 - -31.5°
